| time (UTC) | temp C | wind direction | speed KPH | gust KPH | rain 1hr cm | rain 24hr cm | rain mn cm | humidity % | barometer mb |
| 20260506230329 | 14 | 169 | 4.8 | 11.3 | 0.00 | 0.00 | 0.00 | 73 | 1022.0 |
| 20260506223329 | 15 | 186 | 3.2 | 4.8 | 0.00 | 0.00 | 0.00 | 69 | 1022.1 |
| 20260506220330 | 16 | 182 | 1.6 | 8.0 | 0.00 | 0.00 | 0.00 | 63 | 1022.2 |
| 20260506213329 | 17 | 143 | 4.8 | 22.5 | 0.00 | 0.00 | 0.00 | 58 | 1022.2 |
| 20260506210328 | 17 | 158 | 9.7 | 17.7 | 0.00 | 0.00 | 0.00 | 58 | 1021.6 |
| 20260506203329 | 18 | 166 | 14.5 | 27.4 | 0.00 | 0.00 | 0.00 | 62 | 1021.7 |
| 20260506200329 | 18 | 153 | 6.4 | 14.5 | 0.00 | 0.00 | 0.00 | 62 | 1021.9 |
| 20260506193329 | 15 | 171 | 0.0 | 3.2 | 0.00 | 0.00 | 0.00 | 63 | 1022.3 |
| 20260506190329 | 15 | 160 | 0.0 | 3.2 | 0.00 | 0.00 | 0.00 | 65 | 1022.6 |
| 20260506183328 | 16 | 182 | 0.0 | 3.2 | 0.00 | 0.00 | 0.00 | 61 | 1023.2 |
| 20260506180330 | 19 | 206 | 0.0 | 1.6 | 0.00 | 0.00 | 0.00 | 51 | 1023.6 |
| 20260506173330 | 22 | 221 | 0.0 | 1.6 | 0.00 | 0.00 | 0.00 | 40 | 1023.7 |
| 20260506170330 | 25 | 181 | 0.0 | 3.2 | 0.00 | 0.00 | 0.00 | 33 | 1024.0 |
| 20260506163328 | 24 | 218 | 0.0 | 8.0 | 0.00 | 0.00 | 0.00 | 36 | 1023.6 |
| 20260506160328 | 26 | 222 | 1.6 | 14.5 | 0.00 | 0.00 | 0.00 | 29 | 1023.5 |
| 20260506153330 | 26 | 230 | 4.8 | 9.7 | 0.00 | 0.00 | 0.00 | 31 | 1023.1 |
| 20260506150329 | 26 | 214 | 3.2 | 11.3 | 0.00 | 0.00 | 0.00 | 33 | 1022.8 |
| 20260506143329 | 25 | 196 | 3.2 | 11.3 | 0.00 | 0.00 | 0.00 | 33 | 1022.7 |
| 20260506140330 | 26 | 208 | 9.7 | 17.7 | 0.00 | 0.00 | 0.00 | 31 | 1022.6 |
| 20260506133330 | 27 | 192 | 4.8 | 16.1 | 0.00 | 0.00 | 0.00 | 29 | 1022.4 |
| 20260506130329 | 25 | 184 | 6.4 | 22.5 | 0.00 | 0.00 | 0.00 | 32 | 1022.1 |
| 20260506123328 | 25 | 206 | 4.8 | 17.7 | 0.00 | 0.00 | 0.00 | 35 | 1021.9 |
| 20260506120328 | 25 | 190 | 8.0 | 24.1 | 0.00 | 0.00 | 0.00 | 38 | 1021.7 |
| 20260506113330 | 25 | 181 | 8.0 | 22.5 | 0.00 | 0.00 | 0.00 | 36 | 1021.6 |
| 20260506110328 | 25 | 191 | 14.5 | 20.9 | 0.00 | 0.00 | 0.00 | 38 | 1021.6 |
| 20260506103329 | 25 | 165 | 4.8 | 30.6 | 0.00 | 0.00 | 0.00 | 35 | 1021.6 |
| 20260506100329 | 25 | 178 | 9.7 | 17.7 | 0.00 | 0.00 | 0.00 | 36 | 1021.4 |
| 20260506093329 | 25 | 195 | 8.0 | 14.5 | 0.00 | 0.00 | 0.00 | 34 | 1021.3 |
| 20260506090329 | 23 | 207 | 9.7 | 17.7 | 0.00 | 0.00 | 0.00 | 34 | 1021.5 |
| 20260506083330 | 23 | 218 | 4.8 | 11.3 | 0.00 | 0.00 | 0.00 | 37 | 1021.4 |
| 20260506080330 | 23 | 166 | 4.8 | 12.9 | 0.00 | 0.00 | 0.00 | 35 | 1021.6 |
| 20260506073328 | 22 | 189 | 3.2 | 9.7 | 0.00 | 0.00 | 0.00 | 36 | 1021.4 |
| 20260506070329 | 20 | 190 | 4.8 | 9.7 | 0.00 | 0.00 | 0.00 | 40 | 1021.0 |
| 20260506060328 | 16 | 231 | 1.6 | 4.8 | 0.00 | 0.00 | 0.00 | 51 | 1021.0 |
| 20260506050328 | 16 | 126 | 3.2 | 11.3 | 0.00 | 0.00 | 0.00 | 51 | 1021.3 |
| 20260506043329 | 15 | 136 | 4.8 | 8.0 | 0.00 | 0.00 | 0.00 | 54 | 1021.0 |
| 20260506040329 | 12 | 45 | 0.0 | 3.2 | 0.00 | 0.00 | 0.00 | 59 | 1020.9 |
| 20260506033328 | 12 | 181 | 0.0 | 1.6 | 0.00 | 0.00 | 0.00 | 58 | 1021.1 |
| 20260506030328 | 12 | 139 | 1.6 | 4.8 | 0.00 | 0.00 | 0.00 | 57 | 1021.0 |
| 20260506023330 | 13 | 45 | 0.0 | 0.0 | 0.00 | 0.00 | 0.00 | 52 | 1021.1 |
| 20260506020328 | 13 | 314 | 0.0 | 0.0 | 0.00 | 0.00 | 0.00 | 50 | 1020.7 |
| 20260506013330 | 13 | 168 | 0.0 | 4.8 | 0.00 | 0.00 | 0.00 | 52 | 1020.6 |
| 20260506010330 | 13 | 163 | 1.6 | 4.8 | 0.00 | 0.00 | 0.00 | 52 | 1020.8 |
| 20260506003329 | 12 | 168 | 1.6 | 8.0 | 0.00 | 0.00 | 0.00 | 53 | 1020.7 |
| 20260506000330 | 13 | 161 | 1.6 | 4.8 | 0.00 | 0.00 | 0.00 | 52 | 1020.9 |
| 20260505233329 | 13 | 166 | 3.2 | 6.4 | 0.00 | 0.00 | 0.00 | 51 | 1020.9 |